Regional Weather Roundup
Issued by NWS

Home | Current Version | Previous Version | Text Only | Print | Product List | Glossary On
Versions: 1 2 3 4 5 6 7 8 9 10 11 12 13 14 15 16 17 18 19 20 21 22 23 24 25 26 27 28 29 30 31 32 33 34 35 36 37 38 39 40 41 42 43 44 45 46 47 48 49 50
670
ASUS43 KMPX 161001
RWRMN
WEATHER ROUNDUP FOR MINNESOTA
NATIONAL WEATHER SERVICE TWIN CITIES/CHANHASSEN MN
400 AM CST SAT DEC 16 2017


NOTE: "FAIR" INDICATES FEW OR NO CLOUDS BELOW 12,000 FEET WITH NO
SIGNIFICANT WEATHER AND/OR OBSTRUCTIONS TO VISIBILITY. N/A MEANS
CURRENT SKY AND/OR WEATHER CONDITIONS ARE NOT AVAILABLE.

MNZ060>063-068>070-161100-
   Twin Cities Metro

CITY           SKY/WX    TMP DP  RH WIND       PRES   REMARKS
TWIN CITIES    CLOUDY    28  27  96 E7        29.69R WCI  21
ST PAUL        PTCLDY    27  25  92 NE5       29.71R WCI  22
CRYSTAL        MOCLDY    26  22  84 NE6       29.69R WCI  19
BLAINE         CLOUDY    27  27 100 NE7       29.70R WCI  19
LAKEVILLE      CLOUDY    27  27 100 CALM      29.66R
EDEN PRAIRIE   CLOUDY    29  27  92 NE7       29.66R WCI  22
SOUTH ST PAUL  PTCLDY    28  27  94 E6        29.69R WCI  22
LAKE ELMO      MOCLDY    27  25  93 NE8       29.71R WCI  18
$$
MNZ001>005-007-008-013>017-022>024-027-028-161100-
   Northwest Minnesota

CITY           SKY/WX    TMP DP  RH WIND       PRES   REMARKS
BEMIDJI        CLOUDY    15  12  88 E9        29.72R WCI   3
HALLOCK        CLOUDY    16  10  79 E12       29.73S WCI   3
ROSEAU         CLOUDY     9   3  78 E10       29.79R WCI  -6
WARROAD        CLOUDY     9   3  78 E13       29.79R WCI  -7
THIEF RVR FALL CLOUDY    16  12  86 E14       29.73R WCI   1
CROOKSTON      CLOUDY    19  16  86 E10       29.72R WCI   8
FOSSTON        CLOUDY    18  14  86 E8        29.70R WCI   7
DETROIT LAKES  CLOUDY    23  21  93 SE5       29.68R WCI  17
MOORHEAD       CLOUDY    25  21  86 CALM      29.68R
PARK RAPIDS    CLOUDY    19  15  84 E7        29.69R WCI  10
MAHNOMEN       CLOUDY    22  18  84 E8        29.67S WCI  12
$$
MNZ006-009>011-018-025>026-161100-
   North Central Minnesota

CITY           SKY/WX    TMP DP  RH WIND       PRES   REMARKS
BAUDETTE       CLOUDY     6   1  80 E13       29.78S WCI -10
FLAG ISLAND    CLOUDY     0  -6  78 E5        29.82R WCI -10
INTL FALLS     CLOUDY     2  -4  76 E8        29.82F WCI -12
WASKISH        CLOUDY     9   7  92 E8        29.77R WCI  -4
BIG FORK       CLOUDY     9   5  85 E5        29.76F WCI   0
LONGVILLE      CLOUDY    18  14  86 E5        29.72S WCI  11
GRAND RAPIDS   CLOUDY    13  10  88 E5        29.76S WCI   5
CRANE LAKE     CLOUDY    -2  -6  84 CALM      29.87S
ORR            CLOUDY     1  -4  78 CALM      29.77F
COOK           CLOUDY     1   0  92 E3        29.80S
WALKER         CLOUDY    16  13  89 E6        29.71S WCI   7
$$
MNZ012-019>021-037-161100-
   Northeast Minnesota

CITY           SKY/WX    TMP DP  RH WIND       PRES   REMARKS
DULUTH         CLOUDY    16  14  92 SE13      29.77R WCI   2
ELY            CLOUDY     0  -6  78 NE3       29.81S
HIBBING        CLOUDY     6   3  87 CALM      29.77R
EVELETH        FLURRIES   7   1  79 NE7       29.79R WCI  -5
DULUTH HARBOR  CLOUDY    19  16  86 E10       29.84R WCI   8
TWO HARBORS    FLURRIES  19  14  79 NE6       29.79R WCI  11
SILVER BAY     FLURRIES  14  10  85 N6        29.81R WCI   5
GRAND MARAIS     N/A      7   1  76 NE8       29.92R WCI  -6
G MARAIS ARPRT FLURRIES  -2  -8  78 N6        29.80R WCI -14
$$
MNZ029>031-032-039>041-046>048-054>057-064-161100-
   West Central Minnesota

CITY           SKY/WX    TMP DP  RH WIND       PRES   REMARKS
FERGUS FALLS   CLOUDY    25  25 100 E3        29.69R
WHEATON        CLOUDY    27  25  93 CALM      29.66S
MORRIS         CLOUDY    27  27 100 E5        29.64R WCI  21
ALEXANDRIA     CLOUDY    25  23  92 E7        29.66R FOG     WCI  17
ELBOW LAKE     CLOUDY    26  25  95 SE8       29.65S FOG     WCI  18
WADENA         CLOUDY    19  18  93 E6        29.68R WCI  11
GLENWOOD       CLOUDY    25  25 100 NE9       29.65S FOG     WCI  15
APPLETON         N/A     28  27  93 CALM      29.64R
BENSON         CLOUDY    28  27  93 SE3       29.65R
ORTONVILLE     CLOUDY    30  27  86 CALM      29.64R
MADISON        CLOUDY    34  28  80 W7        29.64R WCI  28
WILLMAR        MOCLDY    28  28 100 E7        29.65S WCI  21
$$
MNZ033>034-036-042>043-049>051-058-059-161100-
   Central Minnesota

CITY           SKY/WX    TMP DP  RH WIND       PRES   REMARKS
ST CLOUD       CLOUDY    21  19  92 MISG      29.68R
SAUK CENTRE    CLOUDY    22  21  95 E6        29.67R WCI  15
PAYNESVILLE    CLOUDY    25  25 100 E8        29.66S FOG     WCI  17
AITKIN         CLOUDY    16  12  86 E8G16     29.72S WCI   5
PINE RIVER     CLOUDY    18  14  86 E8        29.74S WCI   7
BRAINERD       CLOUDY    20  16  84 E6        29.71R WCI  12
STAPLES        CLOUDY    19  18  93 E5        29.68R WCI  13
LITTLE FALLS   CLOUDY    23  18  80 NE3       29.71R
LITCHFIELD     CLOUDY    28  28 100 E6        29.67R FOG     WCI  22
BUFFALO        CLOUDY    25  23  93 NE7       29.69R WCI  17
MAPLE LAKE     CLOUDY    26  25  98 NE6       29.69R WCI  19
HUTCHINSON     PTCLDY    28  28  96 NE7       29.67R WCI  21
$$
MNZ037-044-045-052-053-161100-
   East Central Minnesota

CITY           SKY/WX    TMP DP  RH WIND       PRES   REMARKS
PRINCETON      PTCLDY    23  19  86 NE6       29.70R WCI  16
MORA           CLOUDY    19  18  93 E5        29.75R WCI  13
CAMBRIDGE      CLOUDY    25  19  80 NE6       29.72R WCI  18
RUSH CITY      CLOUDY    21  18  88 NE7       29.73R WCI  12
MOOSE LAKE     CLOUDY    18  14  86 E7        29.75R WCI   8
HINCKLEY       CLOUDY    21  18  86 NE8       29.75R WCI  12
CLOQUET        CLOUDY    14  10  85 E6        29.77R WCI   5
MCGREGOR       CLOUDY    19  14  79 E7        29.74F WCI  10
$$
MNZ071>073-080-081-089-090-097-098-161100-
   Southwest Minnesota

CITY           SKY/WX    TMP DP  RH WIND       PRES   REMARKS
MONTEVIDEO     PTCLDY    27  23  86 CALM      29.64R
GRANITE FALLS  CLOUDY    28  25  91 CALM      29.64S
CANBY          CLOUDY    36  28  73 W9        29.66R
MARSHALL       CLOUDY    33  26  75 W12       29.63R WCI  24
REDWOOD FALLS  CLOUDY    30  28  92 SE5       29.63R WCI  25
OLIVIA         CLOUDY    28  27  93 E5        29.63S WCI  23
PIPESTONE      CLOUDY    34  27  75 NW8       29.63S WCI  27
WINDOM           N/A     32  19  59 SW9       29.63R WCI  24
WORTHINGTON    CLOUDY    32  26  78 W10       29.64S WCI  24
JACKSON        CLOUDY    30  27  86 SW7       29.64S WCI  23
SLAYTON        CLOUDY    34  28  76 W9        29.63S WCI  27
$$
MNZ065>067-074>077-082>085-091>093-161100-
   South Central Minnesota

CITY           SKY/WX    TMP DP  RH WIND       PRES   REMARKS
MANKATO        CLOUDY    30  25  81 CALM      29.65R
NEW ULM        CLOUDY    32  25  74 CALM      29.63S
ST JAMES       CLOUDY    30  27  86 SW5       29.64R WCI  25
FAIRMONT       CLOUDY    30  25  81 SW6       29.64F WCI  24
GLENCOE        CLOUDY    29  29 100 NE3       29.65R
FARIBAULT      CLOUDY    28  27  93 CALM      29.65S
OWATONNA       CLOUDY    30  27  86 CALM      29.64S
WASECA         CLOUDY    30  27  86 S6        29.65S WCI  24
$$
MNZ078>079-086>088-094>096-161100-
   Southeast Minnesota

CITY           SKY/WX    TMP DP  RH WIND       PRES   REMARKS
ROCHESTER      CLOUDY    31  26  82 S9        29.65F WCI  23
RED WING       PTCLDY    28  25  86 E6        29.67F WCI  22
STANTON        CLOUDY    31  26  83 NE3       29.64F
DODGE CENTER   CLOUDY    30  27  86 CALM      29.63F
WINONA         CLOUDY    30  28  93 S3        29.71F
AUSTIN         CLOUDY    28  25  86 S6        29.66S WCI  22
PRESTON        CLOUDY    31  25  80 S6        29.67R WCI  25
$$
ABBREVIATIONS USED IN REMARKS
   TC - TEMPERATURES IN CELSIUS
  WCI - WIND CHILL INDEX
   HX - HEAT INDEX
  VSB - VISIBILITY
$$




USA.gov is the U.S. government's official web portal to all federal, state and local government web resources and services.